Weather History for KFST - December, 2012

Change the Weather History Date:

Saturday, December 8, 2012

  Actual Average Record
Temperature  
Mean Temperature 62 °F -  
Max Temperature 75 °F 59 °F 82 °F (2008)
Min Temperature 50 °F 37 °F 10 °F (2005)
Degree Days  
Heating Degree Days 2    
Growing Degree Days 12 (Base 50)    
Moisture  
Dew Point 21 °F    
Average Humidity 23    
Maximum Humidity 31    
Minimum Humidity 11    
Precipitation  
Precipitation 0.00 in - - ()
Sea Level Pressure  
Sea Level Pressure 29.79 in    
Wind  
Wind Speed 11 mph (SW)    
Max Wind Speed 15 mph    
Max Gust Speed 21 mph    
Visibility 10 miles    
Events      
Averages and records for this station are not official NWS values.
T = Trace of Precipitation, MM = Missing Value Source: NWS Daily Summary

Daily Weather History Graph

Daily Weather History Graph

Search for Another Location

Airport or City:

Trip Planner

Search our weather history database for the weather conditions in past years. The results will help you decide how hot, cold, wet, or windy it might be!

Date:

Astronomy

Dec. 08, 2012 Rise Set
Actual Time 7:37 AM CST 5:49 PM CST
Civil Twilight 7:11 AM CST 6:16 PM CST
Nautical Twilight 6:41 AM CST 6:46 PM CST
Astronomical Twilight 6:11 AM CST 7:15 PM CST
Moon 2:21 AM CST (12/8) 2:06 PM CST (12/8)
Length of Visible Light 11h 05m
Length of Day
10h 12m
Waning Crescent, 28% of the Moon is Illuminated
Dec 8
Waning Crescent
Dec 13
New
Dec 19
First Quarter
Dec 28
Full
Jan 4
Last Quarter

Hourly Weather History & Observations

Time (CST) Temp. Dew Point Humidity Pressure Visibility Wind Dir Wind Speed Gust Speed Precip Events Conditions
12:53 AM 52.0 °F 21.0 °F 30% 29.79 in 10.0 mi SW 11.5 mph - N/A   Clear
1:53 AM 53.1 °F 21.0 °F 29% 29.78 in 10.0 mi SW 11.5 mph - N/A   Clear
2:53 AM 52.0 °F 19.9 °F 28% 29.78 in 10.0 mi SW 13.8 mph - N/A   Clear
3:53 AM 52.0 °F 21.0 °F 30% 29.79 in 10.0 mi SW 12.7 mph - N/A   Clear
4:53 AM 52.0 °F 21.0 °F 30% 29.78 in 10.0 mi SW 11.5 mph - N/A   Clear
5:53 AM 51.1 °F 21.0 °F 31% 29.81 in 10.0 mi SW 11.5 mph - N/A   Clear
6:53 AM 51.1 °F 19.9 °F 29% 29.83 in 10.0 mi SW 15.0 mph - N/A   Clear
7:53 AM 50.0 °F 19.9 °F 31% 29.85 in 10.0 mi SW 12.7 mph - N/A   Clear
8:53 AM 57.9 °F 19.9 °F 23% 29.85 in 10.0 mi SW 11.5 mph - N/A   Clear
9:53 AM 66.9 °F 23.0 °F 19% 29.84 in 10.0 mi WSW 10.4 mph - N/A   Clear
10:53 AM 71.1 °F 26.1 °F 19% 29.86 in 10.0 mi WSW 9.2 mph - N/A   Clear
11:53 AM 73.9 °F 27.0 °F 18% 29.83 in 10.0 mi West 12.7 mph 20.7 mph N/A   Clear
12:53 PM 73.9 °F 26.1 °F 17% 29.80 in 10.0 mi SW 8.1 mph - N/A   Clear
1:53 PM 75.0 °F 25.0 °F 16% 29.75 in 10.0 mi WSW 6.9 mph 17.3 mph N/A   Clear
2:53 PM 75.9 °F 23.0 °F 14% 29.73 in 10.0 mi WSW 9.2 mph 17.3 mph N/A   Clear
3:53 PM 75.9 °F 23.0 °F 14% 29.72 in 10.0 mi WSW 4.6 mph - N/A   Clear
4:53 PM 73.9 °F 16.0 °F 11% 29.72 in 10.0 mi WSW 9.2 mph - N/A   Clear
5:53 PM 66.9 °F 19.0 °F 16% 29.75 in 10.0 mi West 9.2 mph - N/A   Clear
6:53 PM 63.0 °F 19.9 °F 19% 29.76 in 10.0 mi West 9.2 mph - N/A   Clear
7:53 PM 59.0 °F 19.0 °F 21% 29.79 in 10.0 mi SSW 10.4 mph - N/A   Clear
8:53 PM 59.0 °F 19.0 °F 21% 29.79 in 10.0 mi SSW 12.7 mph - N/A   Clear
9:53 PM 57.9 °F 19.9 °F 23% 29.78 in 10.0 mi SSW 11.5 mph - N/A   Clear
10:53 PM 55.9 °F 21.0 °F 26% 29.79 in 10.0 mi SSW 11.5 mph - N/A   Clear
11:53 PM 54.0 °F 21.9 °F 29% 29.78 in 10.0 mi SW 11.5 mph - N/A   Clear